Stündliche Wetter Juchnajcie

Heute, 8 März, Montag

Zeit Temperatur Niederschläge Wind Luftdruck Luftfeuchtigkeit
00:00 -7°C° 0 mm 4 m/S 744 mmHg 80%
01:00 -7°C° 0 mm 5 m/S 744 mmHg 79%
02:00 -6°C° 0.1 mm 5 m/S 744 mmHg 82%
03:00 -6°C° 0.1 mm 5 m/S 744 mmHg 84%
04:00 -6°C° 0.1 mm 6 m/S 745 mmHg 87%
05:00 -6°C° 0.1 mm 5 m/S 745 mmHg 86%
06:00 -6°C° 0.1 mm 5 m/S 745 mmHg 84%
07:00 -6°C° 0.1 mm 5 m/S 745 mmHg 83%
08:00 -6°C° 0 mm 5 m/S 746 mmHg 79%
09:00 -5°C° 0 mm 5 m/S 747 mmHg 74%
10:00 -5°C° 0 mm 5 m/S 747 mmHg 70%
11:00 -4°C° 0 mm 5 m/S 747 mmHg 70%
12:00 -4°C° 0 mm 5 m/S 748 mmHg 71%
13:00 -2°C° 0 mm 5 m/S 748 mmHg 72%
14:00 -4°C° 0.1 mm 6 m/S 748 mmHg 72%
15:00 -4°C° 0.1 mm 6 m/S 748 mmHg 72%
16:00 -4°C° 0.1 mm 6 m/S 749 mmHg 73%
17:00 -5°C° 0 mm 5 m/S 749 mmHg 76%
18:00 -5°C° 0 mm 4 m/S 749 mmHg 79%
19:00 -5°C° 0 mm 4 m/S 750 mmHg 82%
20:00 -6°C° 0 mm 3 m/S 750 mmHg 83%
21:00 -5°C° 0 mm 2 m/S 751 mmHg 84%
22:00 -5°C° 0 mm 2 m/S 751 mmHg 85%
23:00 -6°C° 0 mm 2 m/S 751 mmHg 85%

Morgen, 9 März, Dienstag

Zeit Temperatur Niederschläge Wind Luftdruck Luftfeuchtigkeit
00:00 -4°C° 0 mm 1 m/S 751 mmHg 86%
01:00 -4°C° 0 mm 1 m/S 752 mmHg 86%
02:00 -4°C° 0 mm 1 m/S 752 mmHg 86%
03:00 -4°C° 0 mm 1 m/S 751 mmHg 86%
04:00 -4°C° 0 mm 1 m/S 751 mmHg 86%
05:00 -4°C° 0 mm 1 m/S 752 mmHg 85%
06:00 -4°C° 0 mm 1 m/S 752 mmHg 84%
07:00 -4°C° 0 mm 1 m/S 752 mmHg 84%
08:00 -3°C° 0 mm 1 m/S 752 mmHg 77%
09:00 -2°C° 0 mm 1 m/S 752 mmHg 71%
10:00 -3°C° 0 mm 0 m/S 752 mmHg 65%
11:00 -1°C° 0 mm 1 m/S 752 mmHg 61%
12:00 -1°C° 0 mm 1 m/S 752 mmHg 58%
13:00 -2°C° 0 mm 2 m/S 752 mmHg 54%
14:00 -2°C° 0 mm 2 m/S 752 mmHg 55%
15:00 -2°C° 0 mm 2 m/S 752 mmHg 56%
16:00 -3°C° 0 mm 2 m/S 751 mmHg 57%
17:00 -3°C° 0 mm 2 m/S 752 mmHg 61%
18:00 -2°C° 0 mm 1 m/S 752 mmHg 64%
19:00 -3°C° 0 mm 1 m/S 752 mmHg 68%
20:00 -5°C° 0 mm 2 m/S 752 mmHg 69%
21:00 -5°C° 0 mm 2 m/S 752 mmHg 71%
22:00 -5°C° 0 mm 2 m/S 752 mmHg 72%
23:00 -5°C° 0 mm 2 m/S 752 mmHg 75%

übermorgen, 10 März, Mittwoch

Zeit Temperatur Niederschläge Wind Luftdruck Luftfeuchtigkeit
00:00 -5°C° 0 mm 2 m/S 752 mmHg 78%
01:00 -5°C° 0 mm 2 m/S 751 mmHg 81%
02:00 -5°C° 0 mm 2 m/S 751 mmHg 82%
03:00 -5°C° 0 mm 2 m/S 751 mmHg 82%
04:00 -5°C° 0 mm 2 m/S 751 mmHg 83%
05:00 -5°C° 0 mm 2 m/S 751 mmHg 82%
06:00 -5°C° 0 mm 2 m/S 751 mmHg 82%
07:00 -5°C° 0 mm 2 m/S 751 mmHg 82%
08:00 -4°C° 0 mm 2 m/S 751 mmHg 76%
09:00 -2°C° 0 mm 2 m/S 751 mmHg 70%
10:00 -1°C° 0 mm 2 m/S 751 mmHg 65%
11:00 -1°C° 0 mm 2 m/S 751 mmHg 61%
12:00 +1°C° 0 mm 2 m/S 751 mmHg 57%
13:00 +1°C° 0 mm 3 m/S 751 mmHg 53%
14:00 +1°C° 0 mm 2 m/S 751 mmHg 54%
15:00 +1°C° 0 mm 2 m/S 751 mmHg 56%
16:00 +2°C° 0 mm 1 m/S 751 mmHg 58%
17:00 +1°C° 0 mm 1 m/S 751 mmHg 61%
18:00 -2°C° 0 mm 2 m/S 751 mmHg 64%
19:00 -3°C° 0 mm 2 m/S 751 mmHg 68%
20:00 -3°C° 0 mm 2 m/S 751 mmHg 69%
21:00 -3°C° 0 mm 2 m/S 751 mmHg 71%
22:00 -4°C° 0 mm 3 m/S 751 mmHg 73%
23:00 -4°C° 0 mm 3 m/S 751 mmHg 72%

11 März, Donnerstag

Zeit Temperatur Niederschläge Wind Luftdruck Luftfeuchtigkeit
00:00 -4°C° 0 mm 3 m/S 751 mmHg 71%
01:00 -4°C° 0 mm 3 m/S 750 mmHg 70%
02:00 -4°C° 0 mm 3 m/S 750 mmHg 68%
03:00 -4°C° 0 mm 4 m/S 749 mmHg 67%
04:00 -5°C° 0 mm 4 m/S 749 mmHg 65%
05:00 -5°C° 0 mm 5 m/S 748 mmHg 63%
06:00 -5°C° 0 mm 5 m/S 748 mmHg 62%
07:00 -5°C° 0 mm 6 m/S 748 mmHg 60%
08:00 -4°C° 0 mm 6 m/S 747 mmHg 56%
09:00 -3°C° 0 mm 7 m/S 746 mmHg 53%
10:00 -4°C° 0 mm 8 m/S 746 mmHg 50%
11:00 -2°C° 0 mm 8 m/S 745 mmHg 50%
12:00 -2°C° 0 mm 8 m/S 744 mmHg 50%
13:00 -2°C° 0 mm 8 m/S 743 mmHg 51%
14:00 -3°C° 0.2 mm 9 m/S 742 mmHg 64%
15:00 -4°C° 0.2 mm 9 m/S 741 mmHg 77%
16:00 -4°C° 0.2 mm 9 m/S 740 mmHg 90%
17:00 -4°C° 0.3 mm 9 m/S 739 mmHg 92%
18:00 -4°C° 0.3 mm 9 m/S 737 mmHg 93%
19:00 -3°C° 0.3 mm 9 m/S 736 mmHg 94%
20:00 -2°C° 1.5 mm 8 m/S 735 mmHg 94%
21:00 -1°C° 1.5 mm 8 m/S 734 mmHg 95%
22:00 0°C° 1.5 mm 7 m/S 733 mmHg 95%
23:00 +1°C° 1 mm 6 m/S 733 mmHg 95%

12 März, Freitag

Zeit Temperatur Niederschläge Wind Luftdruck Luftfeuchtigkeit
00:00 +1°C° 1 mm 6 m/S 733 mmHg 94%
01:00 +2°C° 1 mm 5 m/S 732 mmHg 93%
02:00 +1°C° 0.1 mm 5 m/S 732 mmHg 93%
03:00 +1°C° 0.1 mm 5 m/S 733 mmHg 92%
04:00 +1°C° 0.1 mm 5 m/S 733 mmHg 92%
05:00 +1°C° 0 mm 6 m/S 733 mmHg 92%
06:00 +1°C° 0 mm 6 m/S 733 mmHg 93%
07:00 +1°C° 0 mm 6 m/S 733 mmHg 93%
08:00 +1°C° 0.4 mm 6 m/S 733 mmHg 92%
09:00 0°C° 0.4 mm 7 m/S 734 mmHg 91%
10:00 0°C° 0.4 mm 7 m/S 734 mmHg 90%
11:00 0°C° 0.3 mm 7 m/S 734 mmHg 90%
12:00 0°C° 0.3 mm 7 m/S 735 mmHg 90%
13:00 +1°C° 0.3 mm 6 m/S 735 mmHg 90%
14:00 0°C° 0.2 mm 7 m/S 735 mmHg 86%
15:00 0°C° 0.2 mm 7 m/S 736 mmHg 81%
16:00 +2°C° 0.2 mm 7 m/S 736 mmHg 76%
17:00 0°C° 0.4 mm 7 m/S 736 mmHg 79%
18:00 0°C° 0.4 mm 7 m/S 737 mmHg 81%
19:00 -1°C° 0.4 mm 7 m/S 737 mmHg 84%
20:00 -1°C° 0 mm 7 m/S 737 mmHg 83%
21:00 -1°C° 0 mm 8 m/S 738 mmHg 82%
22:00 -1°C° 0 mm 8 m/S 738 mmHg 80%
23:00 -1°C° 0 mm 7 m/S 738 mmHg 82%

13 März, Samstag

Zeit Temperatur Niederschläge Wind Luftdruck Luftfeuchtigkeit
00:00 -1°C° 0 mm 7 m/S 739 mmHg 84%
01:00 -2°C° 0 mm 7 m/S 739 mmHg 85%
02:00 -2°C° 0 mm 6 m/S 739 mmHg 87%
03:00 -1°C° 0 mm 5 m/S 740 mmHg 88%
04:00 -1°C° 0 mm 5 m/S 740 mmHg 90%
05:00 -1°C° 0 mm 5 m/S 740 mmHg 90%
06:00 -1°C° 0 mm 4 m/S 741 mmHg 90%
07:00 -1°C° 0 mm 4 m/S 741 mmHg 90%
08:00 0°C° 0 mm 4 m/S 741 mmHg 87%
09:00 +1°C° 0 mm 5 m/S 741 mmHg 83%
10:00 +2°C° 0 mm 5 m/S 741 mmHg 80%
11:00 +3°C° 0 mm 5 m/S 741 mmHg 77%
12:00 +5°C° 0 mm 5 m/S 741 mmHg 73%
13:00 +5°C° 0 mm 6 m/S 741 mmHg 70%
14:00 +6°C° 0 mm 5 m/S 740 mmHg 71%
15:00 +6°C° 0 mm 4 m/S 740 mmHg 72%
16:00 +5°C° 0 mm 4 m/S 740 mmHg 73%
17:00 +5°C° 0 mm 4 m/S 740 mmHg 76%
18:00 +4°C° 0 mm 4 m/S 740 mmHg 79%
19:00 +3°C° 0 mm 4 m/S 740 mmHg 82%
20:00 +3°C° 0.2 mm 4 m/S 740 mmHg 85%
21:00 +3°C° 0.2 mm 4 m/S 740 mmHg 88%
22:00 +3°C° 0.2 mm 4 m/S 740 mmHg 91%
23:00 +2°C° 0.1 mm 3 m/S 740 mmHg 92%
Mehr zeigen

Wir brauchen deine Erlaubnis

Meteoprog und unser Service Anbieter werden persönliche Daten aufbewahren, so wie Cookies, Geräte Bezeichnung oder ähnliche Technologien von deinem Gerät und Prozess, so wie Persönliche Daten Inhalte und Werbungen, genauso wie social Media und den Verkehr zu analysieren.

  • Aufbewahrung und/oder Zugang zu deiner Geräte Informationen.

    Cookies, Geräte Bezeichnung oder andere Informationen, können aufbewahrt oder Zugang zu deinem Gerät erhalten, für den Grund, der oben angegeben wird.

  • Personalisierte Werbung und Inhalte, Messungen, Einblick in das Publikum und Produkt Entwicklung.

    Werbungen und Inhalte können personalisiert werden, basierend auf ein Profil. Mehr Daten können besser personalisierte Werbungen und Inhalte hinzufügen. Werbung und Inhalte können gezeigt und gemessen werden. Einblicke über das Publikum, welche die Werbung gesehen haben und den Inhalt, können abgeleitet werden. So wie Daten können genutzt werden, um es zu verbessern oder die Benutzer Erfahrung zu verbessern das System und die Software.

Wenn du “Ich stimme zu” klickst, erlaubst du uns, die Cookies zu benutzen die Geräte Bezeichnung, den Web oder ähnliche Technologien zu benutzen. Deine Settings, können in deinem Gerät bei deinem Browser geändert werden.

Für den bestimmten Zweck, berechtigten Interessen beruhen darauf, mehr als auf den Inhalt. Du kannst mehr darüber in unseren Privaten und Cookie Politik lesen.